Location: Newark
(52.3735°N, 16.9806°E)
Time: 06:49:51
(UTC+00:00)

ISS - Pass Details

Date: 04 October 2021
Orbit: 417 x 423 km, 51.6° (Epoch: 17 October)

Event Time Altitude Azimuth Distance (km) Brightness Sun altitude
Rises 17:32:14 0° 281° (W) 2,366 2.3 -11.5°
Reaches altitude 10° 17:34:41 10° 263° (W) 1,499 0.4 -11.9°
Maximum altitude 17:37:13 20° 215° (SW) 1,039 -1.5 -12.3°
Drops below altitude 10° 17:39:44 10° 166° (SSE) 1,495 -1.2 -12.7°
Enters shadow 17:40:33 - 158° (SSE) 1,766 -0.9 -12.8°
